Wind_Speed
32 38 37 35 31 32 31 26 15 11 13 15 17 18 15 17 19 17 16 18 19 24 24 25 26 24 22 24 21 24 20 18 8 7 26 36 40 50 47 51 54 49 45
32 36 34 28 27 21 12 12 14 14 14 13 16 19 18 17 17 19 21 20 20 17 22 25 25 25 27 27 27 30 34 24 14 15 21 29 32 51 50 50 50 49 47
30 33 24 23 21 15 16 16 16 16 16 15 16 17 17 20 20 20 19 17 17 21 21 18 17 24 25 24 27 26 27 30 32 23 13 25 31 44 43 45 46 45 47
26 22 21 20 21 21 18 17 16 15 15 15 16 17 17 18 18 18 14 17 17 17 20 24 12 15 27 30 27 30 26 25 28 25 26 28 30 37 49 44 36 43 42
19 19 17 21 21 22 19 18 17 17 17 19 19 18 16 15 8 19 19 19 21 19 18 18 18 9 21 24 26 28 29 25 28 27 22 24 25 31 37 41 39 39 39
15 17 16 15 18 23 22 21 21 22 22 21 19 19 19 15 17 19 21 17 16 20 22 19 17 17 21 29 39 34 38 30 29 25 29 27 26 33 35 42 40 38 20
15 16 15 14 16 19 20 21 21 23 23 22 21 22 20 20 21 22 22 20 21 21 21 22 21 18 19 20 35 39 39 41 47 43 36 42 37 40 39 40 45 50 37
14 14 17 16 16 18 18 17 19 22 23 23 23 23 21 20 22 22 22 22 20 20 20 20 23 24 21 18 18 33 39 44 45 45 46 51 54 54 53 54 55 42 31
10 12 14 16 15 17 17 18 18 19 21 21 21 23 23 23 23 21 20 19 17 20 21 23 23 25 26 23 23 23 31 36 45 50 48 49 52 61 56 40 39 37 29
12 14 14 15 15 16 17 17 18 18 19 19 22 23 24 23 23 20 17 17 16 17 20 21 23 24 25 28 28 26 30 37 35 37 37 37 39 45 55 59 53 42 41
12 13 14 13 15 13 15 17 18 18 17 18 20 24 23 20 20 19 19 19 20 21 20 21 22 25 26 26 28 33 29 34 40 45 37 39 42 46 48 46 56 55 47
11 13 13 12 13 12 15 15 16 17 17 15 18 19 20 19 17 20 20 18 17 22 23 24 26 27 27 28 30 32 32 39 39 34 32 33 39 41 42 43 45 42 53
11 12 12 12 12 13 13 16 16 16 17 17 16 18 18 18 18 19 17 17 23 22 23 27 31 32 28 28 31 30 30 39 35 32 33 35 43 47 43 37 39 33 34
13 13 11 12 12 12 14 14 15 16 15 16 18 18 18 19 19 18 19 21 20 21 21 24 26 27 26 26 27 27 31 39 38 34 32 31 32 39 39 41 39 37 33
13 13 12 11 13 14 13 15 16 15 16 19 20 18 19 18 20 23 23 21 21 21 24 23 21 20 20 20 20 21 28 32 28 28 30 32 35 39 37 41 39 39 32
12 12 11 12 14 12 13 17 15 14 19 18 20 22 25 23 22 22 21 20 19 19 18 17 16 15 14 11 10 19 25 28 30 32 32 36 36 37 37 39 39 39 36
12 11 12 15 13 14 15 15 19 22 20 19 21 25 24 25 21 22 20 19 19 16 13 14 14 14 12 8 7 14 19 28 31 33 34 35 35 36 40 39 38 36 35
10 14 17 14 12 14 15 17 16 17 19 22 23 26 25 21 20 21 19 17 15 13 13 13 14 14 13 7 8 12 16 22 28 31 33 34 36 38 38 37 37 36 37
11 13 15 15 16 17 20 17 14 18 19 20 21 22 24 25 21 20 19 14 14 14 15 15 16 13 10 7 10 14 19 22 24 27 30 34 35 38 36 37 37 39 40
11 15 16 16 15 17 16 15 14 16 16 18 19 21 24 25 20 20 18 17 15 15 16 15 16 13 9 6 11 16 18 21 23 25 28 31 33 36 35 37 36 37 38
11 12 14 17 16 15 16 15 14 17 16 15 18 20 25 25 23 20 18 17 17 16 16 16 14 13 11 10 10 17 19 20 24 25 29 30 34 32 34 34 37 37 35
10 12 13 15 16 15 15 17 17 17 17 19 18 19 23 22 22 21 20 19 20 19 17 15 15 13 12 13 15 17 19 21 23 27 30 31 34 32 34 36 36 35 36
15 12 14 16 16 16 17 16 18 17 18 19 19 20 20 20 22 24 22 22 22 21 18 15 15 13 13 14 17 21 22 24 27 31 31 31 32 30 35 35 35 36 37
14 13 15 18 20 20 20 18 17 20 20 19 19 20 19 20 22 24 27 24 23 22 18 16 15 14 13 13 16 21 24 25 30 36 36 34 33 33 35 36 38 39 38
21 21 21 21 22 24 25 22 20 20 20 19 19 19 20 21 21 23 27 26 23 22 20 17 15 14 14 13 16 20 25 27 32 36 38 36 36 37 38 37 37 37 39
24 25 26 26 25 24 24 24 23 20 20 21 20 19 20 21 20 23 25 30 24 22 21 17 16 15 14 13 15 19 23 28 33 37 37 36 37 36 36 36 38 37 40
Wind_Direction
339 324 314 308 304 303 296 298 305 313 326 321 322 316 316 315 322 317 316 317 303 277 270 234 232 232 224 226 211 198 199 186 192 193 181 170 167 170 168 168 172 173 176
335 323 321 321 316 311 323 340 332 340 339 327 320 318 322 319 322 315 309 311 313 319 285 263 238 224 224 218 208 198 201 199 172 174 177 177 170 164 166 163 164 171 173
343 343 348 348 347 359 0 344 343 340 333 331 328 323 319 332 332 326 321 317 302 310 298 309 247 238 214 210 202 195 196 186 183 167 162 179 172 160 159 160 161 165 173
341 338 351 347 348 343 348 345 339 339 336 335 333 335 333 331 325 324 335 337 326 328 318 301 338 254 225 204 198 196 191 171 170 172 169 173 176 168 161 154 151 159 162
325 320 344 346 341 338 332 331 331 339 341 343 342 340 333 329 355 343 333 328 323 313 309 317 310 312 230 223 209 196 187 175 172 170 163 169 176 166 166 161 152 153 161
315 313 326 342 345 334 337 330 339 342 337 334 334 334 333 329 320 331 335 327 319 321 320 325 322 310 279 255 230 217 202 172 173 171 167 173 181 174 169 160 152 154 150
308 312 323 331 336 330 328 330 325 329 328 327 323 327 324 323 327 332 329 330 329 322 317 314 313 304 297 284 246 218 212 207 201 182 180 184 178 183 168 165 169 169 171
312 320 322 330 330 324 322 326 327 332 326 322 322 321 318 318 321 323 323 324 325 315 310 308 307 305 294 293 278 224 207 206 208 199 198 188 189 183 181 176 174 167 158
312 321 316 323 322 322 324 326 328 324 324 323 323 322 316 314 317 316 316 318 313 309 307 305 299 299 292 288 270 247 217 209 210 212 205 199 190 189 181 168 165 151 153
322 318 320 323 324 323 321 327 328 330 319 322 328 330 325 313 317 319 314 306 307 308 305 299 294 288 284 274 264 252 215 211 202 203 198 197 193 186 177 177 168 164 156
310 312 312 315 317 320 321 325 325 322 325 328 330 331 329 321 318 319 316 308 307 308 300 296 293 296 295 278 262 254 249 213 195 196 189 184 184 182 182 182 179 173 168
310 307 304 313 317 322 324 323 326 322 323 317 335 321 325 320 317 317 316 309 312 311 299 298 293 296 290 279 262 263 250 211 188 180 170 168 171 179 182 182 184 185 184
300 297 309 316 319 330 324 324 325 329 341 333 327 319 313 318 315 314 314 306 311 305 297 299 298 296 293 277 260 253 255 193 176 172 172 174 178 180 176 175 179 185 184
299 306 313 314 326 329 326 325 327 327 330 329 325 315 316 318 318 316 310 311 311 309 305 304 302 308 301 278 263 248 214 181 174 177 177 174 167 165 168 169 165 162 159
304 308 312 315 320 319 320 320 318 322 325 320 316 311 310 310 308 312 312 309 310 309 314 317 308 311 307 285 244 212 182 173 172 170 164 161 166 166 168 166 163 157 159
294 296 305 301 298 296 315 315 315 316 324 327 329 328 324 314 309 312 308 307 308 319 311 300 308 311 311 297 197 172 170 170 167 164 164 164 165 165 163 164 163 164 158
289 307 309 304 303 323 317 313 316 322 330 332 337 338 334 325 314 319 312 310 315 317 285 303 313 322 314 291 221 183 176 175 169 166 165 166 165 164 162 163 165 162 160
316 298 299 295 319 313 305 305 300 320 322 329 335 335 337 331 323 322 328 321 319 321 307 307 316 319 322 282 221 191 173 168 167 165 163 163 165 163 164 164 166 164 161
306 305 307 314 311 303 303 303 313 317 315 322 328 329 330 333 325 321 317 300 300 307 311 317 318 310 307 263 217 189 173 168 167 164 164 164 166 166 167 166 166 165 163
296 294 304 307 299 297 302 308 311 309 314 319 322 325 326 329 324 323 317 299 296 301 311 313 313 303 279 259 200 185 172 167 163 163 164 166 166 168 165 165 165 164 168
277 293 300 300 299 308 310 308 322 310 304 310 315 317 324 323 312 306 304 309 299 300 305 304 304 293 271 246 211 179 172 169 168 166 164 165 166 167 167 164 163 165 161
298 293 297 301 302 303 309 314 306 309 312 314 314 318 322 321 319 311 312 306 306 303 299 297 291 286 261 238 218 194 179 171 168 166 166 165 166 163 162 162 163 161 155
290 295 305 302 300 301 301 301 304 305 309 307 315 315 315 317 319 322 310 312 308 305 295 288 285 281 261 246 229 208 191 181 176 169 165 163 164 160 161 160 157 157 158
302 306 306 304 306 300 292 288 295 299 297 302 305 308 310 314 316 318 319 312 313 307 293 285 279 271 260 246 233 220 203 190 183 176 170 165 165 161 159 159 160 163 163
309 306 300 296 295 292 290 286 284 286 289 294 297 301 306 312 313 317 322 313 310 303 293 286 277 266 257 247 230 221 210 197 184 179 173 171 167 163 162 162 163 163 161
296 293 291 290 286 286 288 288 285 285 288 291 294 299 304 303 312 317 315 325 308 297 289 278 273 259 255 238 223 216 207 197 188 179 174 169 165 163 164 162 162 160 160
Height
771 766 760 752 748 745 738 733 732 729 725 724 723 723 720 720 717 715 712 711 710 711 709 707 708 711 715 717 721 725 729 733 740 752 754 759 764 773 784 791 798 811 821
769 763 754 746 742 739 736 733 733 729 726 725 722 721 719 718 714 713 710 707 707 708 706 704 700 703 709 712 714 718 726 730 735 746 751 757 761 764 777 784 794 805 816
768 761 753 747 743 739 736 735 733 730 727 725 723 720 717 712 710 709 705 703 706 705 703 700 695 697 702 707 709 712 719 722 730 738 749 755 760 761 774 782 789 802 812
769 763 755 749 743 740 738 736 735 733 729 726 723 719 715 711 710 708 704 704 704 700 701 700 687 694 698 700 706 710 716 717 724 734 740 752 758 760 765 772 787 797 809
769 764 756 749 745 741 740 738 735 731 728 724 721 719 717 716 712 710 708 705 700 705 703 696 692 691 695 701 704 704 710 714 720 730 738 747 754 758 760 769 778 792 809
768 763 755 748 745 742 740 738 734 731 728 725 722 719 716 714 713 711 707 707 704 696 692 688 692 690 694 698 697 700 701 705 715 723 729 739 747 752 759 761 773 789 808
763 759 755 750 745 743 741 737 734 730 728 725 722 718 715 711 708 705 703 699 693 691 688 688 688 690 692 693 692 694 696 700 702 710 720 727 738 744 751 756 764 772 789
759 755 753 748 743 742 740 735 732 729 726 723 720 716 713 710 707 704 701 698 695 694 692 691 688 687 689 690 691 690 691 696 701 704 708 715 721 732 740 739 752 772 787
753 751 750 746 742 741 738 734 730 727 725 722 719 715 711 708 706 703 701 698 696 694 693 690 689 687 685 687 688 688 690 691 695 700 704 709 714 719 732 747 757 763 779
748 747 746 744 740 738 736 733 728 725 723 720 716 712 708 705 702 701 700 698 696 694 690 688 686 684 684 685 685 685 680 683 689 698 704 712 717 723 727 731 741 753 767
744 743 743 741 739 736 734 732 728 724 721 716 714 710 707 703 700 698 696 694 691 689 687 684 680 676 675 676 675 674 673 679 682 690 695 703 710 719 727 734 735 739 753
741 740 739 737 736 733 731 729 727 723 716 713 711 709 706 702 699 697 694 691 688 685 680 676 672 672 670 666 664 665 670 670 673 681 686 693 701 713 721 725 736 743 747
739 737 735 733 732 731 729 727 724 721 715 712 709 707 703 700 697 694 691 688 685 682 678 672 667 662 658 654 652 655 659 661 663 673 676 681 688 699 712 722 735 744 754
735 733 731 730 728 727 726 724 721 718 714 711 708 704 700 696 693 691 688 684 679 676 671 666 660 655 648 644 643 644 647 649 653 662 667 677 687 697 706 715 727 739 750
732 731 729 728 726 725 724 722 719 716 713 710 705 701 696 692 689 687 684 679 675 672 666 661 656 650 643 636 634 634 638 642 649 656 665 672 683 690 702 711 723 732 741
731 729 727 726 724 721 719 716 715 713 710 706 702 697 692 687 684 681 678 675 671 667 664 661 655 648 642 637 633 632 635 640 645 652 661 668 677 686 696 708 718 727 735
727 726 725 723 721 719 716 714 709 704 703 700 697 692 688 683 680 677 674 670 667 664 661 656 651 646 642 638 636 634 633 636 642 649 656 665 673 683 691 701 713 723 734
724 723 722 719 717 716 713 711 708 705 699 695 692 688 684 681 677 674 670 667 663 660 657 653 648 645 641 638 637 637 638 640 642 647 654 661 670 677 687 697 708 716 728
722 721 719 716 714 712 709 706 704 703 698 693 689 685 683 679 675 671 668 665 661 657 654 650 647 644 642 639 638 638 638 640 643 647 653 658 667 675 686 695 704 713 723
719 718 716 713 711 708 706 703 701 699 696 692 688 684 680 676 672 668 665 661 658 655 652 649 646 643 642 641 639 639 640 642 644 648 653 660 667 674 681 689 699 708 718
714 713 711 710 708 705 702 700 698 696 692 688 685 683 679 676 670 665 661 658 656 653 650 647 645 643 641 641 640 640 641 643 645 648 652 658 665 672 680 688 697 708 716
712 710 708 706 705 702 700 698 695 692 689 685 681 679 676 673 668 663 659 655 652 650 647 644 643 641 640 640 640 640 640 642 645 649 654 659 665 672 679 688 698 706 712
710 707 705 703 701 699 697 694 692 689 686 683 679 677 673 670 665 661 656 651 648 645 644 641 639 638 638 637 637 638 638 640 643 646 651 657 663 669 677 685 693 701 710
707 705 703 701 699 696 692 689 687 685 682 679 676 673 670 666 662 657 653 648 644 641 640 638 636 635 635 634 634 635 637 638 641 645 649 655 662 668 675 684 691 699 708
706 703 700 697 695 692 688 684 681 679 676 674 671 669 666 662 658 655 650 645 640 637 635 634 633 632 632 631 632 633 634 637 639 643 649 654 660 666 674 682 690 699 706
701 698 695 692 689 686 683 679 676 673 671 669 667 664 661 658 654 651 647 642 637 634 632 631 630 629 629 629 630 631 633 636 639 642 647 653 659 666 673 681 689 696 704